Change the Weather History Date:

Wednesday, January 16, 2013

  Actual Average Record
Temperature  
Mean Temperature 33 °F 34 °F  
Max Temperature 34 °F 42 °F 71 °F (1990)
Min Temperature 31 °F 26 °F -10 °F (1977)
Degree Days  
Heating Degree Days 32 31  
Month to date heating degree days 414 490  
Since 1 July heating degree days 2009 2154  
Cooling Degree Days 0 0  
Month to date cooling degree days 0 0  
Year to date cooling degree days 0 0  
Moisture  
Dew Point 28 °F    
Average Humidity 87    
Maximum Humidity 92    
Minimum Humidity 82    
Precipitation  
Precipitation 0.01 in 0.11 in 0.80 in (1978)
Month to date precipitation 3.62 1.93  
Year to date precipitation 3.62 1.93  
Sea Level Pressure  
Sea Level Pressure 30.09 in    
Wind  
Wind Speed 3 mph (West)    
Max Wind Speed 9 mph    
Max Gust Speed 12 mph    
Visibility 6 miles    
Events Rain    
T = Trace of Precipitation, MM = Missing Value Source: NWS Daily Summary

Daily Weather History Graph

Daily Weather History Graph

Search for Another Location

Airport or City:

Trip Planner

Search our weather history database for the weather conditions in past years. The results will help you decide how hot, cold, wet, or windy it might be!

Date:

Astronomy

Jan. 16, 2013 Rise Set
Actual Time 7:57 AM EST 5:47 PM EST
Civil Twilight 7:28 AM EST 6:16 PM EST
Nautical Twilight 6:56 AM EST 6:49 PM EST
Astronomical Twilight 6:24 AM EST 7:20 PM EST
Moon 10:39 AM EST (1/16) 11:32 PM EST (1/16)
Length of Visible Light 10h 47m
Length of Day
9h 50m
Waxing Crescent, 28% of the Moon is Illuminated
Jan 16
Waxing Crescent
Jan 18
First Quarter
Jan 26
Full
Feb 3
Last Quarter
Feb 10
New

Hourly Weather History & Observations

Time (EST) Temp. Windchill Dew Point Humidity Pressure Visibility Wind Dir Wind Speed Gust Speed Precip Events Conditions
12:00 AM 30.2 °F 26.7 °F 28.4 °F 93% 30.07 in 5.0 mi NE 3.5 mph - 0.00 in   Overcast
12:14 AM 30.2 °F 25.4 °F 28.4 °F 93% 30.07 in 4.0 mi NNE 4.6 mph - 0.01 in Rain Light Freezing Rain
12:32 AM 32.0 °F - 30.2 °F 93% 30.09 in 5.0 mi Calm Calm - 0.01 in Rain Light Freezing Rain
12:42 AM 32.0 °F 27.5 °F 28.4 °F 87% 30.08 in 6.0 mi North 4.6 mph - 0.01 in   Overcast
12:53 AM 32.0 °F 28.7 °F 28.9 °F 88% 30.11 in 7.0 mi North 3.5 mph - 0.01 in   Overcast
1:07 AM 32.0 °F 26.4 °F 28.4 °F 87% 30.08 in 7.0 mi North 5.8 mph - N/A   Overcast
1:53 AM 30.9 °F 25.2 °F 28.9 °F 92% 30.09 in 6.0 mi North 5.8 mph - N/A   Overcast
2:31 AM 30.2 °F 26.7 °F 28.4 °F 93% 30.05 in 5.0 mi North 3.5 mph - N/A   Mostly Cloudy
2:44 AM 30.2 °F 24.3 °F 28.4 °F 93% 30.07 in 5.0 mi NNW 5.8 mph - N/A   Mostly Cloudy
3:08 AM 30.2 °F 25.4 °F 28.4 °F 93% 30.05 in 5.0 mi North 4.6 mph - N/A   Overcast
3:53 AM 30.2 °F - 28.4 °F 93% 30.06 in 5.0 mi Calm Calm - N/A   Overcast
4:53 AM 30.9 °F - 28.0 °F 89% 30.05 in 5.0 mi Calm Calm - N/A   Partly Cloudy
5:53 AM 30.9 °F 27.5 °F 28.0 °F 89% 30.06 in 6.0 mi Variable 3.5 mph - N/A   Overcast
6:39 AM 30.2 °F - 26.6 °F 86% 30.02 in 7.0 mi Calm Calm - N/A   Overcast
6:53 AM 30.2 °F - 28.4 °F 93% 30.03 in 6.0 mi Calm Calm - N/A   Overcast
7:53 AM 32.0 °F - 28.9 °F 88% 30.06 in 6.0 mi Calm Calm - N/A   Overcast
8:13 AM 32.0 °F - 28.4 °F 87% 30.06 in 6.0 mi Calm Calm - N/A   Overcast
8:53 AM 32.0 °F - 28.9 °F 88% 30.10 in 4.0 mi Calm Calm - N/A   Overcast
9:53 AM 32.0 °F 28.7 °F 28.9 °F 88% 30.12 in 4.0 mi West 3.5 mph - N/A   Overcast
10:53 AM 32.0 °F 28.7 °F 28.0 °F 85% 30.11 in 4.0 mi WSW 3.5 mph - N/A   Overcast
11:53 AM 33.1 °F 28.7 °F 28.0 °F 82% 30.08 in 5.0 mi West 4.6 mph - N/A   Haze
12:53 PM 33.1 °F 27.7 °F 28.0 °F 82% 30.08 in 4.0 mi WSW 5.8 mph - N/A   Haze
1:53 PM 33.1 °F 27.7 °F 28.0 °F 82% 30.07 in 5.0 mi SSW 5.8 mph - N/A   Haze
2:53 PM 33.1 °F 28.7 °F 28.0 °F 82% 30.07 in 5.0 mi SSW 4.6 mph - N/A   Haze
3:53 PM 34.0 °F 28.8 °F 28.9 °F 82% 30.09 in 5.0 mi South 5.8 mph - N/A   Haze
4:53 PM 33.1 °F 28.7 °F 28.9 °F 85% 30.10 in 5.0 mi WSW 4.6 mph - N/A   Clear
5:53 PM 33.1 °F 28.7 °F 28.0 °F 82% 30.10 in 7.0 mi SW 4.6 mph - N/A   Clear
6:53 PM 33.1 °F 26.9 °F 28.9 °F 85% 30.12 in 6.0 mi SSW 6.9 mph - N/A   Clear
7:53 PM 33.1 °F 27.7 °F 28.9 °F 85% 30.14 in 6.0 mi SW 5.8 mph - N/A   Clear
8:53 PM 32.0 °F 27.5 °F 28.0 °F 85% 30.14 in 7.0 mi SW 4.6 mph - N/A   Clear
9:53 PM 32.0 °F 28.7 °F 28.0 °F 85% 30.15 in 7.0 mi SW 3.5 mph - N/A   Clear
10:53 PM 32.0 °F - 28.0 °F 85% 30.15 in 7.0 mi Calm Calm - N/A   Clear
11:53 PM 32.0 °F - 27.0 °F 82% 30.17 in 7.0 mi Calm Calm - N/A   Clear